Volver al catálogo

PEGASUS DEB

LostPO
NORAD 27755·DEBRIS·🇺🇸 United States

Lanzado May 19, 1994 desde Vandenberg Space Force Base

Loading…

Próximos Pases (próximas 24 horas)

TLE

ObsoletoSource: Space-Track

Época: Oct 28, 2005, 12:03 UTC

1 27755U 94029AEK 05301.50218394  .00000708  00000-0  38671-3 0  9994
2 27755  81.8188 133.1962 0861058  33.6818 331.6603 12.99182376142618

Sigue PEGASUS DEB en tiempo real con AllMySat

Download on the App Store